sat.trackr.live / text

‹ back to catalog

ONEWEB-0354

NORAD 49217 · 2021-083AH

PAYLOAD ACTIVE UNKNOWN

§ Identity

Operator
Country
UK
Launch date
2021-09-14
Launch site
TYMSC
Launch vehicle
Mass (kg)
RCS (m²)

Purposes: comms

External: N2YO · Heavens-Above · Gunter

§ Orbital elements

Epoch: 2026-09-03T23:54:59.011776Z

Period
109.03 min
Inclination
87.9135°
Eccentricity
0.0001536
Mean motion
13.20770020 rev/d
Perigee alt
1,180.6 km
Apogee alt
1,182.9 km
Semi-major
7,559.9 km
B*
1.4454e-4
RAAN
258.7211°
Arg perigee
96.9725°
Mean anomaly
263.1583°
Rev number
24,721

§ Raw data

ONEWEB-03541 49217U 21083AH  26246.99651634  .00000072  00000+0  14454-3 0  99992 49217  87.9135 258.7211 0001536  96.9725 263.1583 13.20770020247213

JSON: /api/v1/satellites/49217 · /tle

For live sub-satellite position, see the globe view (requires WebGL).

§ Visibility from observer

Set your observer location to see the next 7 days of passes ≥ 10°. The values pass through the URL so the page stays shareable.

No JS? Fill the form by hand. The geolocation button needs JavaScript.